Regional Weather Roundup
Issued by NWS

Home | Current Version | Previous Version | Graphics & Text | Print | Product List | Glossary On
Versions: 1 2 3 4 5 6 7 8 9 10 11 12 13 14 15 16 17 18 19 20 21 22 23 24 25 26 27 28 29 30 31 32 33 34 35 36 37 38 39 40 41 42 43 44 45 46 47 48 49 50
296
ASUS43 KBIS 281410
RWRND
NORTH DAKOTA REGIONAL WEATHER ROUNDUP
NATIONAL WEATHER SERVICE EASTERN NORTH DAKOTA/GRAND FORKS ND
900 AM CDT SUN MAY 28 2017

  NOTE: "FAIR" INDICATES FEW OR NO CLOUDS BELOW 12,000 FEET WITH NO
  SIGNIFICANT WEATHER AND/OR OBSTRUCTIONS TO VISIBILITY.

NDZ001>003-009>011-017-281500-
...NORTHWEST NORTH DAKOTA...

CITY           SKY/WX    TMP DP  RH WIND       PRES   REMARKS
WILLISTON      PTSUNNY   58  37  45 NE5       29.98S
MINOT          FAIR      62  45  53 NW21G28   29.89S
MINOT AFB      FAIR      59  45  58 NW21      29.88S
$$

NDZ018>021-031>035-040>046-281500-
...SOUTHWEST NORTH DAKOTA...

CITY           SKY/WX    TMP DP  RH WIND       PRES   REMARKS
BISMARCK       FAIR      61  43  51 NW15G22   29.93R
DICKINSON      CLOUDY    55  37  50 W16       29.99R
GARRISON         N/A     56  45  66 NW15      29.92R
HETTINGER      FAIR      61  37  41 NW14G23   30.03R
$$

NDZ004>008-012>016-024-026-027-054-281500-
...NORTHEAST NORTH DAKOTA...

CITY           SKY/WX    TMP DP  RH WIND       PRES   REMARKS
GRAND FORKS    LGT RAIN  55  51  86 W12       29.75R
GRAND FORKS AF CLOUDY    55  49  81 NW13      29.76S
DEVILS LAKE    PTSUNNY   57  48  72 NW22      29.81R
$$

NDZ022-023-025-028>030-036>039-047>053-281500-
...SOUTHEAST NORTH DAKOTA...

CITY           SKY/WX    TMP DP  RH WIND       PRES   REMARKS
JAMESTOWN      CLOUDY    60  47  61 NW15      29.82S
FARGO          CLOUDY    57  49  74 NW13      29.77R
WAHPETON       CLOUDY    54  45  71 NW12      29.79S
$$




USA.gov is the U.S. government's official web portal to all federal, state and local government web resources and services.